Time,TemperatureF,DewpointF,PressureIn,WindDirection,WindDirectionDegrees,WindSpeedMPH,WindSpeedGustMPH,Humidity,HourlyPrecipIn,Conditions,Clouds,dailyrainin,SolarRadiationWatts/m^2,SoftwareType,DateUTC
2013-01-20 00:01:00,49.5,46.4,30.20,NE,36,0.0,0.0,89,0.00,,,0.00,0.0,meteohub,2013-01-20 05:01:00,
2013-01-20 00:03:00,49.5,46.0,30.20,NE,36,0.0,0.0,88,0.00,,,0.00,0.0,meteohub,2013-01-20 05:03:00,
2013-01-20 00:08:00,49.5,46.4,30.20,NE,36,0.0,0.0,89,0.00,,,0.00,0.0,meteohub,2013-01-20 05:08:00,
2013-01-20 00:13:00,49.6,47.5,30.20,NE,36,0.0,0.0,92,0.00,,,0.00,0.0,meteohub,2013-01-20 05:13:00,
2013-01-20 00:18:00,49.6,46.6,30.20,NE,36,0.0,0.0,89,0.00,,,0.00,0.0,meteohub,2013-01-20 05:18:00,
2013-01-20 00:23:00,49.6,46.6,30.19,NE,36,0.0,0.0,89,0.00,,,0.00,0.0,meteohub,2013-01-20 05:23:00,
2013-01-20 00:28:00,49.6,46.6,30.19,NE,36,0.0,0.0,89,0.00,,,0.00,0.0,meteohub,2013-01-20 05:28:00,
2013-01-20 00:33:00,49.6,46.6,30.20,NE,36,0.0,0.0,89,0.00,,,0.00,0.0,meteohub,2013-01-20 05:33:00,
2013-01-20 00:38:00,49.6,46.6,30.20,NE,36,0.0,0.0,89,0.00,,,0.00,0.0,meteohub,2013-01-20 05:38:00,
2013-01-20 00:43:00,49.8,46.8,30.20,NE,36,0.0,0.0,89,0.00,,,0.00,0.0,meteohub,2013-01-20 05:43:00,
2013-01-20 00:49:00,49.8,46.8,30.20,NE,36,0.0,1.0,89,0.00,,,0.00,0.0,meteohub,2013-01-20 05:49:00,
2013-01-20 00:54:00,49.8,46.8,30.20,NE,36,0.0,1.0,89,0.00,,,0.00,0.0,meteohub,2013-01-20 05:54:00,
2013-01-20 00:59:00,49.8,46.8,30.20,NE,36,0.0,1.0,89,0.00,,,0.00,0.0,meteohub,2013-01-20 05:59:00,
2013-01-20 01:04:00,49.8,46.8,30.20,NE,36,0.0,1.0,89,0.00,,,0.00,0.0,meteohub,2013-01-20 06:04:00,
2013-01-20 01:09:00,49.6,46.6,30.20,NE,36,0.0,1.0,89,0.00,,,0.00,0.0,meteohub,2013-01-20 06:09:00,
2013-01-20 01:14:00,49.6,46.6,30.19,NE,36,0.0,0.0,89,0.00,,,0.00,0.0,meteohub,2013-01-20 06:14:00,
2013-01-20 01:19:00,49.6,46.8,30.19,NE,36,0.0,0.0,90,0.00,,,0.00,0.0,meteohub,2013-01-20 06:19:00,
2013-01-20 01:24:00,49.5,46.6,30.19,NE,36,0.0,0.0,90,0.00,,,0.00,0.0,meteohub,2013-01-20 06:24:00,
2013-01-20 01:29:00,49.5,46.6,30.19,NE,36,0.0,0.0,90,0.00,,,0.00,0.0,meteohub,2013-01-20 06:29:00,
2013-01-20 01:34:00,49.5,46.6,30.19,NE,36,0.0,0.0,90,0.00,,,0.00,0.0,meteohub,2013-01-20 06:34:00,
2013-01-20 01:39:00,49.3,46.2,30.19,NE,36,0.0,0.0,89,0.00,,,0.00,0.0,meteohub,2013-01-20 06:39:00,
2013-01-20 01:44:00,49.3,46.2,30.19,NE,36,0.0,0.0,89,0.00,,,0.00,0.0,meteohub,2013-01-20 06:44:00,
2013-01-20 01:49:00,49.1,46.2,30.19,NE,36,0.0,0.0,90,0.00,,,0.00,0.0,meteohub,2013-01-20 06:49:00,
2013-01-20 01:54:00,48.9,46.0,30.19,NE,36,0.0,0.0,90,0.00,,,0.00,0.0,meteohub,2013-01-20 06:54:00,
2013-01-20 01:59:00,48.9,46.0,30.19,NE,36,0.0,0.0,90,0.00,,,0.00,0.0,meteohub,2013-01-20 06:59:00,
2013-01-20 02:04:00,48.9,46.0,30.19,NE,36,0.0,0.0,90,0.00,,,0.00,0.0,meteohub,2013-01-20 07:04:00,
2013-01-20 02:09:00,48.9,46.0,30.19,NE,36,0.0,0.0,90,0.00,,,0.00,0.0,meteohub,2013-01-20 07:09:00,
2013-01-20 02:14:00,48.9,46.0,30.19,NE,36,0.0,0.0,90,0.00,,,0.00,0.0,meteohub,2013-01-20 07:14:00,
2013-01-20 02:19:00,49.1,46.2,30.19,NE,36,0.0,0.0,90,0.00,,,0.00,0.0,meteohub,2013-01-20 07:19:00,
2013-01-20 02:24:00,49.1,46.2,30.19,NE,36,0.0,0.0,90,0.00,,,0.00,0.0,meteohub,2013-01-20 07:24:00,
2013-01-20 02:29:00,49.1,46.2,30.19,NE,36,0.0,0.0,90,0.00,,,0.00,0.0,meteohub,2013-01-20 07:29:00,
2013-01-20 02:34:00,49.3,46.4,30.19,NE,36,0.0,0.0,90,0.00,,,0.00,0.0,meteohub,2013-01-20 07:34:00,
2013-01-20 02:39:00,49.3,46.4,30.19,NE,36,0.0,0.0,90,0.00,,,0.00,0.0,meteohub,2013-01-20 07:39:00,
2013-01-20 02:44:00,49.3,46.4,30.19,NE,36,0.0,0.0,90,0.00,,,0.00,0.0,meteohub,2013-01-20 07:44:00,
2013-01-20 02:49:00,49.3,46.4,30.19,NE,36,0.0,0.0,90,0.00,,,0.00,0.0,meteohub,2013-01-20 07:49:00,
2013-01-20 02:54:00,49.3,46.4,30.19,NE,36,0.0,0.0,90,0.00,,,0.00,0.0,meteohub,2013-01-20 07:54:00,
2013-01-20 02:59:00,49.5,46.6,30.19,NE,36,0.0,0.0,90,0.00,,,0.00,0.0,meteohub,2013-01-20 07:59:00,
2013-01-20 03:04:00,49.5,46.6,30.19,NE,36,0.0,0.0,90,0.00,,,0.00,0.0,meteohub,2013-01-20 08:04:00,
2013-01-20 03:09:00,49.6,46.8,30.19,NE,36,0.0,0.0,90,0.00,,,0.00,0.0,meteohub,2013-01-20 08:09:00,
2013-01-20 03:15:00,49.6,46.8,30.19,NE,36,0.0,0.0,90,0.00,,,0.00,0.0,meteohub,2013-01-20 08:15:00,
2013-01-20 03:20:00,49.6,46.8,30.19,NE,36,0.0,0.0,90,0.00,,,0.00,0.0,meteohub,2013-01-20 08:20:00,
2013-01-20 03:25:00,49.6,47.1,30.19,NE,36,0.0,0.0,91,0.00,,,0.00,0.0,meteohub,2013-01-20 08:25:00,
2013-01-20 03:30:00,49.8,47.3,30.19,NE,36,0.0,0.0,91,0.00,,,0.00,0.0,meteohub,2013-01-20 08:30:00,
2013-01-20 03:35:00,49.8,47.3,30.19,NE,36,0.0,0.0,91,0.00,,,0.00,0.0,meteohub,2013-01-20 08:35:00,
2013-01-20 03:40:00,49.8,47.3,30.19,NE,36,0.0,0.0,91,0.00,,,0.00,0.0,meteohub,2013-01-20 08:40:00,
2013-01-20 03:45:00,50.0,47.5,30.19,NE,36,0.0,1.0,91,0.00,,,0.00,0.0,meteohub,2013-01-20 08:45:00,
2013-01-20 03:50:00,50.0,47.5,30.19,NE,36,0.0,1.0,91,0.00,,,0.00,0.0,meteohub,2013-01-20 08:50:00,
2013-01-20 03:55:00,50.2,47.7,30.19,NE,36,0.0,1.0,91,0.00,,,0.00,0.0,meteohub,2013-01-20 08:55:00,
2013-01-20 04:00:00,50.2,47.7,30.19,NE,36,0.0,0.0,91,0.00,,,0.00,0.0,meteohub,2013-01-20 09:00:00,
2013-01-20 04:05:00,50.2,47.7,30.18,NE,36,0.0,1.0,91,0.00,,,0.00,0.0,meteohub,2013-01-20 09:05:00,
2013-01-20 04:10:00,50.2,47.7,30.18,NE,36,0.0,1.0,91,0.00,,,0.00,0.0,meteohub,2013-01-20 09:10:00,
2013-01-20 04:15:00,50.2,47.7,30.18,NE,36,0.0,2.0,91,0.00,,,0.00,0.0,meteohub,2013-01-20 09:15:00,
2013-01-20 04:20:00,50.2,47.7,30.18,NE,36,0.0,2.0,91,0.00,,,0.00,0.0,meteohub,2013-01-20 09:20:00,
2013-01-20 04:25:00,50.2,47.7,30.18,NE,36,0.0,2.0,91,0.00,,,0.00,0.0,meteohub,2013-01-20 09:25:00,
2013-01-20 04:30:00,50.2,47.7,30.18,NE,36,0.0,2.0,91,0.00,,,0.00,0.0,meteohub,2013-01-20 09:30:00,
2013-01-20 04:35:00,50.2,47.7,30.18,NE,36,0.0,2.0,91,0.00,,,0.00,0.0,meteohub,2013-01-20 09:35:00,
2013-01-20 04:40:00,50.2,47.7,30.18,NE,36,0.0,2.0,91,0.00,,,0.00,0.0,meteohub,2013-01-20 09:40:00,
2013-01-20 04:45:00,50.2,47.7,30.18,NE,36,0.0,1.0,91,0.00,,,0.00,0.0,meteohub,2013-01-20 09:45:00,
2013-01-20 04:50:00,50.2,47.7,30.18,NE,36,0.0,1.0,91,0.00,,,0.00,0.0,meteohub,2013-01-20 09:50:00,
2013-01-20 04:55:00,50.4,47.8,30.18,NE,36,0.0,2.0,91,0.00,,,0.00,0.0,meteohub,2013-01-20 09:55:00,
2013-01-20 05:00:00,50.4,47.8,30.18,NE,36,0.0,2.0,91,0.00,,,0.00,0.0,meteohub,2013-01-20 10:00:00,
2013-01-20 05:05:00,50.4,47.8,30.18,NE,36,0.0,2.0,91,0.00,,,0.00,0.0,meteohub,2013-01-20 10:05:00,
2013-01-20 05:10:00,50.4,47.8,30.18,NE,36,0.0,1.0,91,0.00,,,0.00,0.0,meteohub,2013-01-20 10:10:00,
2013-01-20 05:15:00,50.4,47.8,30.18,NE,36,0.0,1.0,91,0.00,,,0.00,0.0,meteohub,2013-01-20 10:15:00,
2013-01-20 05:20:00,50.4,47.8,30.18,NE,36,0.0,1.0,91,0.00,,,0.00,0.0,meteohub,2013-01-20 10:20:00,
2013-01-20 05:25:00,50.4,47.8,30.18,NE,36,0.0,1.0,91,0.00,,,0.00,0.0,meteohub,2013-01-20 10:25:00,
2013-01-20 05:30:00,50.4,47.8,30.18,NE,36,0.0,2.0,91,0.00,,,0.00,0.0,meteohub,2013-01-20 10:30:00,
2013-01-20 05:35:00,50.4,47.8,30.18,NE,36,1.0,2.0,91,0.00,,,0.00,0.0,meteohub,2013-01-20 10:35:00,
2013-01-20 05:40:00,50.4,47.8,30.18,NE,36,0.0,1.0,91,0.00,,,0.00,0.0,meteohub,2013-01-20 10:40:00,
2013-01-20 05:45:00,50.4,47.8,30.18,NE,36,0.0,1.0,91,0.00,,,0.00,0.0,meteohub,2013-01-20 10:45:00,
2013-01-20 05:50:00,50.4,47.8,30.18,NE,36,0.0,1.0,91,0.00,,,0.00,0.0,meteohub,2013-01-20 10:50:00,
2013-01-20 05:55:00,50.4,47.8,30.18,NE,36,0.0,1.0,91,0.00,,,0.00,0.0,meteohub,2013-01-20 10:55:00,
2013-01-20 06:00:00,50.4,47.8,30.18,NE,36,0.0,0.0,91,0.00,,,0.00,0.0,meteohub,2013-01-20 11:00:00,
2013-01-20 06:05:00,50.4,47.8,30.19,NE,36,0.0,0.0,91,0.00,,,0.00,0.0,meteohub,2013-01-20 11:05:00,
2013-01-20 06:10:00,50.4,47.8,30.18,NE,36,0.0,0.0,91,0.00,,,0.00,0.0,meteohub,2013-01-20 11:10:00,
2013-01-20 06:15:00,50.4,47.8,30.18,NE,36,0.0,0.0,91,0.00,,,0.00,0.0,meteohub,2013-01-20 11:15:00,
2013-01-20 06:20:00,50.4,47.8,30.18,NE,36,0.0,0.0,91,0.00,,,0.00,0.0,meteohub,2013-01-20 11:20:00,
2013-01-20 06:25:00,50.2,47.7,30.18,NE,36,0.0,0.0,91,0.00,,,0.00,0.0,meteohub,2013-01-20 11:25:00,
2013-01-20 06:31:00,50.2,47.7,30.18,NE,36,0.0,0.0,91,0.00,,,0.00,0.0,meteohub,2013-01-20 11:31:00,
2013-01-20 06:36:00,50.2,47.7,30.18,NE,36,0.0,1.0,91,0.00,,,0.00,0.0,meteohub,2013-01-20 11:36:00,
2013-01-20 06:41:00,50.2,47.7,30.18,NW,325,1.0,1.0,91,0.00,,,0.00,0.0,meteohub,2013-01-20 11:41:00,
2013-01-20 06:46:00,50.2,47.7,30.17,NW,315,2.0,4.0,91,0.00,,,0.00,0.0,meteohub,2013-01-20 11:46:00,
2013-01-20 06:51:00,50.0,47.5,30.18,NW,316,2.0,5.0,91,0.00,,,0.00,0.0,meteohub,2013-01-20 11:51:00,
2013-01-20 06:56:00,50.0,48.6,30.18,West,276,1.0,5.0,95,0.00,,,0.00,0.0,meteohub,2013-01-20 11:56:00,
2013-01-20 07:01:00,49.8,47.3,30.18,West,280,0.0,7.0,91,0.00,,,0.00,0.0,meteohub,2013-01-20 12:01:00,
2013-01-20 07:06:00,49.8,47.3,30.19,West,280,0.0,7.0,91,0.00,,,0.00,0.0,meteohub,2013-01-20 12:06:00,
2013-01-20 07:11:00,49.6,47.1,30.18,West,280,0.0,4.0,91,0.00,,,0.00,0.0,meteohub,2013-01-20 12:11:00,
2013-01-20 07:16:00,49.6,47.1,30.18,West,281,0.0,2.0,91,0.00,,,0.00,0.0,meteohub,2013-01-20 12:16:00,
2013-01-20 07:21:00,49.6,47.1,30.18,West,281,0.0,1.0,91,0.00,,,0.00,0.0,meteohub,2013-01-20 12:21:00,
2013-01-20 07:26:00,49.5,46.9,30.18,West,281,0.0,0.0,91,0.00,,,0.00,0.0,meteohub,2013-01-20 12:26:00,
2013-01-20 07:31:00,49.3,46.8,30.19,West,280,0.0,0.0,91,0.00,,,0.00,9.0,meteohub,2013-01-20 12:31:00,
2013-01-20 07:36:00,48.7,46.2,30.19,West,281,0.0,0.0,91,0.00,,,0.00,12.0,meteohub,2013-01-20 12:36:00,
2013-01-20 07:41:00,48.6,46.0,30.19,West,281,0.0,0.0,91,0.00,,,0.00,14.0,meteohub,2013-01-20 12:41:00,
2013-01-20 07:46:00,48.0,45.9,30.20,West,281,0.0,0.0,92,0.00,,,0.00,19.0,meteohub,2013-01-20 12:46:00,
2013-01-20 07:51:00,48.0,45.5,30.20,West,281,0.0,0.0,91,0.00,,,0.00,32.0,meteohub,2013-01-20 12:51:00,
2013-01-20 07:56:00,47.8,45.3,30.20,West,281,0.0,0.0,91,0.00,,,0.00,39.0,meteohub,2013-01-20 12:56:00,
2013-01-20 08:01:00,47.8,45.7,30.20,West,280,0.0,0.0,92,0.00,,,0.00,46.0,meteohub,2013-01-20 13:01:00,
2013-01-20 08:06:00,48.0,45.9,30.20,West,281,0.0,0.0,92,0.00,,,0.00,60.0,meteohub,2013-01-20 13:06:00,
2013-01-20 08:11:00,48.2,46.0,30.19,West,280,0.0,0.0,92,0.00,,,0.00,60.0,meteohub,2013-01-20 13:11:00,
2013-01-20 08:16:00,48.4,46.2,30.19,SW,236,0.0,0.0,92,0.00,,,0.00,58.0,meteohub,2013-01-20 13:16:00,
2013-01-20 08:21:00,48.6,46.4,30.19,SW,236,0.0,0.0,92,0.00,,,0.00,151.0,meteohub,2013-01-20 13:21:00,
2013-01-20 08:27:00,48.9,46.8,30.19,SW,236,0.0,1.0,92,0.00,,,0.00,109.0,meteohub,2013-01-20 13:27:00,
2013-01-20 08:32:00,49.3,47.1,30.19,SW,236,0.0,1.0,92,0.00,,,0.00,142.0,meteohub,2013-01-20 13:32:00,
2013-01-20 08:37:00,49.8,47.7,30.19,SW,236,0.0,1.0,92,0.00,,,0.00,162.0,meteohub,2013-01-20 13:37:00,
2013-01-20 08:42:00,50.2,48.0,30.19,SW,236,0.0,0.0,92,0.00,,,0.00,158.0,meteohub,2013-01-20 13:42:00,
2013-01-20 08:47:00,50.9,48.7,30.19,SW,236,0.0,0.0,92,0.00,,,0.00,169.0,meteohub,2013-01-20 13:47:00,
2013-01-20 08:52:00,51.6,49.5,30.19,SW,236,0.0,0.0,92,0.00,,,0.00,232.0,meteohub,2013-01-20 13:52:00,
2013-01-20 08:57:00,52.3,50.0,30.19,SW,236,0.0,0.0,92,0.00,,,0.00,302.0,meteohub,2013-01-20 13:57:00,
2013-01-20 09:02:00,53.1,50.7,30.20,ESE,109,1.0,1.0,92,0.00,,,0.00,243.0,meteohub,2013-01-20 14:02:00,
2013-01-20 09:07:00,53.4,50.9,30.20,ESE,109,0.0,1.0,91,0.00,,,0.00,318.0,meteohub,2013-01-20 14:07:00,
2013-01-20 09:12:00,54.0,51.4,30.20,ESE,109,0.0,1.0,91,0.00,,,0.00,294.0,meteohub,2013-01-20 14:12:00,
2013-01-20 09:17:00,54.7,52.2,30.20,ESE,109,0.0,1.0,91,0.00,,,0.00,320.0,meteohub,2013-01-20 14:17:00,
2013-01-20 09:22:00,55.0,52.5,30.20,ESE,109,0.0,1.0,91,0.00,,,0.00,345.0,meteohub,2013-01-20 14:22:00,
2013-01-20 09:27:00,55.4,52.5,30.20,ESE,109,0.0,1.0,90,0.00,,,0.00,348.0,meteohub,2013-01-20 14:27:00,
2013-01-20 09:32:00,55.9,53.1,30.20,ESE,109,0.0,1.0,90,0.00,,,0.00,376.0,meteohub,2013-01-20 14:32:00,
2013-01-20 09:37:00,56.7,53.8,30.21,ESE,115,0.0,1.0,90,0.00,,,0.00,401.0,meteohub,2013-01-20 14:37:00,
2013-01-20 09:42:00,56.7,53.8,30.21,ESE,115,0.0,1.0,90,0.00,,,0.00,380.0,meteohub,2013-01-20 14:42:00,
2013-01-20 09:47:00,56.7,53.4,30.21,ESE,116,0.0,1.0,89,0.00,,,0.00,404.0,meteohub,2013-01-20 14:47:00,
2013-01-20 09:52:00,57.0,53.8,30.21,ESE,115,0.0,2.0,89,0.00,,,0.00,429.0,meteohub,2013-01-20 14:52:00,
2013-01-20 09:57:00,57.7,54.5,30.21,ESE,117,0.0,2.0,89,0.00,,,0.00,439.0,meteohub,2013-01-20 14:57:00,
2013-01-20 10:02:00,58.5,55.2,30.21,ESE,117,0.0,2.0,89,0.00,,,0.00,450.0,meteohub,2013-01-20 15:02:00,
2013-01-20 10:07:00,59.0,55.4,30.21,ESE,117,0.0,1.0,88,0.00,,,0.00,464.0,meteohub,2013-01-20 15:07:00,
2013-01-20 10:12:00,59.0,55.4,30.21,West,261,0.0,3.0,88,0.00,,,0.00,478.0,meteohub,2013-01-20 15:12:00,
2013-01-20 10:17:00,59.4,55.8,30.21,West,261,0.0,3.0,88,0.00,,,0.00,490.0,meteohub,2013-01-20 15:17:00,
2013-01-20 10:22:00,59.5,55.6,30.20,West,266,0.0,3.0,87,0.00,,,0.00,499.0,meteohub,2013-01-20 15:22:00,
2013-01-20 10:27:00,59.9,55.9,30.20,West,267,1.0,2.0,87,0.00,,,0.00,512.0,meteohub,2013-01-20 15:27:00,
2013-01-20 10:32:00,60.4,56.5,30.20,WNW,284,2.0,2.0,87,0.00,,,0.00,520.0,meteohub,2013-01-20 15:32:00,
2013-01-20 10:37:00,61.0,56.8,30.20,WNW,284,0.0,5.0,86,0.00,,,0.00,531.0,meteohub,2013-01-20 15:37:00,
2013-01-20 10:42:00,61.7,57.4,30.19,WSW,257,0.0,5.0,86,0.00,,,0.00,543.0,meteohub,2013-01-20 15:42:00,
2013-01-20 10:47:00,62.2,57.4,30.19,West,279,2.0,5.0,84,0.00,,,0.00,554.0,meteohub,2013-01-20 15:47:00,
2013-01-20 10:52:00,63.0,58.1,30.19,SW,222,1.0,6.0,84,0.00,,,0.00,564.0,meteohub,2013-01-20 15:52:00,
2013-01-20 10:57:00,63.7,58.5,30.19,WNW,288,0.0,6.0,83,0.00,,,0.00,573.0,meteohub,2013-01-20 15:57:00,
2013-01-20 11:02:00,63.9,58.3,30.18,NNW,329,4.0,6.0,82,0.00,,,0.00,577.0,meteohub,2013-01-20 16:02:00,
2013-01-20 11:07:00,64.0,58.5,30.17,WNW,282,1.0,4.0,82,0.00,,,0.00,592.0,meteohub,2013-01-20 16:07:00,
2013-01-20 11:12:00,64.6,58.6,30.17,WNW,297,4.0,5.0,81,0.00,,,0.00,589.0,meteohub,2013-01-20 16:12:00,
2013-01-20 11:17:00,64.6,57.9,30.17,WNW,292,6.0,7.0,79,0.00,,,0.00,606.0,meteohub,2013-01-20 16:17:00,
2013-01-20 11:22:00,64.8,58.5,30.17,WNW,286,1.0,11.0,80,0.00,,,0.00,605.0,meteohub,2013-01-20 16:22:00,
2013-01-20 11:27:00,64.9,58.3,30.17,WNW,294,0.0,11.0,79,0.00,,,0.00,617.0,meteohub,2013-01-20 16:27:00,
2013-01-20 11:32:00,65.1,58.1,30.16,NW,306,4.0,11.0,78,0.00,,,0.00,626.0,meteohub,2013-01-20 16:32:00,
2013-01-20 11:37:00,65.5,58.5,30.16,NW,304,7.0,9.0,78,0.00,,,0.00,626.0,meteohub,2013-01-20 16:37:00,
2013-01-20 11:42:00,65.7,58.3,30.16,WNW,282,1.0,10.0,77,0.00,,,0.00,635.0,meteohub,2013-01-20 16:42:00,
2013-01-20 11:47:00,65.8,58.5,30.15,West,278,2.0,12.0,77,0.00,,,0.00,638.0,meteohub,2013-01-20 16:47:00,
2013-01-20 11:52:00,66.0,58.6,30.15,West,281,0.0,12.0,77,0.00,,,0.00,643.0,meteohub,2013-01-20 16:52:00,
2013-01-20 11:57:00,66.6,58.8,30.15,SW,230,2.0,12.0,76,0.00,,,0.00,645.0,meteohub,2013-01-20 16:57:00,
2013-01-20 12:02:00,66.7,58.6,30.14,WSW,245,3.0,11.0,75,0.00,,,0.00,656.0,meteohub,2013-01-20 17:02:00,
2013-01-20 12:07:00,67.3,59.0,30.14,West,263,0.0,9.0,75,0.00,,,0.00,657.0,meteohub,2013-01-20 17:07:00,
2013-01-20 12:12:00,67.3,58.6,30.14,NW,306,3.0,9.0,74,0.00,,,0.00,652.0,meteohub,2013-01-20 17:12:00,
2013-01-20 12:17:00,66.9,58.3,30.14,West,280,6.0,11.0,74,0.00,,,0.00,656.0,meteohub,2013-01-20 17:17:00,
2013-01-20 12:22:00,66.7,57.7,30.13,WNW,300,3.0,13.0,73,0.00,,,0.00,659.0,meteohub,2013-01-20 17:22:00,
2013-01-20 12:27:00,66.7,57.7,30.13,NW,310,2.0,13.0,73,0.00,,,0.00,656.0,meteohub,2013-01-20 17:27:00,
2013-01-20 12:32:00,66.9,57.9,30.13,WNW,296,7.0,13.0,73,0.00,,,0.00,661.0,meteohub,2013-01-20 17:32:00,
2013-01-20 12:37:00,66.9,57.6,30.12,NW,309,7.0,11.0,72,0.00,,,0.00,663.0,meteohub,2013-01-20 17:37:00,
2013-01-20 12:42:00,66.9,57.6,30.12,NNW,348,6.0,11.0,72,0.00,,,0.00,661.0,meteohub,2013-01-20 17:42:00,
2013-01-20 12:47:00,66.7,57.0,30.12,North,0,8.0,14.0,71,0.00,,,0.00,664.0,meteohub,2013-01-20 17:47:00,
2013-01-20 12:52:00,66.9,57.6,30.11,WNW,284,10.0,14.0,72,0.00,,,0.00,659.0,meteohub,2013-01-20 17:52:00,
2013-01-20 12:57:00,66.7,57.0,30.11,West,271,1.0,14.0,71,0.00,,,0.00,668.0,meteohub,2013-01-20 17:57:00,
2013-01-20 13:02:00,66.9,57.2,30.10,WNW,282,1.0,13.0,71,0.00,,,0.00,638.0,meteohub,2013-01-20 18:02:00,
2013-01-20 13:07:00,67.1,57.4,30.10,WNW,300,5.0,13.0,71,0.00,,,0.00,654.0,meteohub,2013-01-20 18:07:00,
2013-01-20 13:12:00,67.1,57.0,30.10,WNW,294,9.0,13.0,70,0.00,,,0.00,661.0,meteohub,2013-01-20 18:12:00,
2013-01-20 13:17:00,66.9,56.8,30.09,SW,233,2.0,16.0,70,0.00,,,0.00,659.0,meteohub,2013-01-20 18:17:00,
2013-01-20 13:22:00,67.1,57.0,30.09,WNW,294,1.0,16.0,70,0.00,,,0.00,642.0,meteohub,2013-01-20 18:22:00,
2013-01-20 13:27:00,67.1,57.0,30.09,WNW,287,2.0,16.0,70,0.00,,,0.00,647.0,meteohub,2013-01-20 18:27:00,
2013-01-20 13:32:00,67.3,57.2,30.09,West,276,3.0,10.0,70,0.00,,,0.00,636.0,meteohub,2013-01-20 18:32:00,
2013-01-20 13:37:00,67.5,57.4,30.09,WNW,302,4.0,10.0,70,0.00,,,0.00,642.0,meteohub,2013-01-20 18:37:00,
2013-01-20 13:42:00,67.6,57.0,30.08,WSW,245,2.0,10.0,69,0.00,,,0.00,635.0,meteohub,2013-01-20 18:42:00,
2013-01-20 13:47:00,67.8,56.8,30.08,WNW,289,14.0,14.0,68,0.00,,,0.00,635.0,meteohub,2013-01-20 18:47:00,
2013-01-20 13:52:00,67.8,56.5,30.08,West,269,4.0,14.0,67,0.00,,,0.00,624.0,meteohub,2013-01-20 18:52:00,
2013-01-20 13:57:00,68.0,57.0,30.08,SW,236,2.0,14.0,68,0.00,,,0.00,613.0,meteohub,2013-01-20 18:57:00,
2013-01-20 14:02:00,67.8,56.5,30.08,WSW,237,3.0,14.0,67,0.00,,,0.00,601.0,meteohub,2013-01-20 19:02:00,
2013-01-20 14:07:00,68.0,56.7,30.08,WSW,243,1.0,11.0,67,0.00,,,0.00,596.0,meteohub,2013-01-20 19:07:00,
2013-01-20 14:12:00,68.4,57.0,30.08,WSW,244,2.0,11.0,67,0.00,,,0.00,580.0,meteohub,2013-01-20 19:12:00,
2013-01-20 14:17:00,68.5,56.7,30.08,WSW,253,2.0,10.0,66,0.00,,,0.00,540.0,meteohub,2013-01-20 19:17:00,
2013-01-20 14:22:00,68.2,56.3,30.08,WNW,293,4.0,10.0,66,0.00,,,0.00,563.0,meteohub,2013-01-20 19:22:00,
2013-01-20 14:27:00,67.8,56.1,30.08,NW,306,4.0,10.0,66,0.00,,,0.00,564.0,meteohub,2013-01-20 19:27:00,
2013-01-20 14:32:00,67.6,55.9,30.07,SW,221,1.0,9.0,66,0.00,,,0.00,545.0,meteohub,2013-01-20 19:32:00,
2013-01-20 14:37:00,68.0,55.8,30.07,SW,224,0.0,8.0,65,0.00,,,0.00,534.0,meteohub,2013-01-20 19:37:00,
2013-01-20 14:42:00,68.4,56.1,30.07,WNW,290,7.0,8.0,65,0.00,,,0.00,524.0,meteohub,2013-01-20 19:42:00,
2013-01-20 14:47:00,68.4,56.1,30.07,WNW,288,1.0,8.0,65,0.00,,,0.00,515.0,meteohub,2013-01-20 19:47:00,
2013-01-20 14:52:00,68.5,55.9,30.07,SW,223,4.0,8.0,64,0.00,,,0.00,504.0,meteohub,2013-01-20 19:52:00,
2013-01-20 14:57:00,68.2,55.6,30.07,NW,316,8.0,8.0,64,0.00,,,0.00,487.0,meteohub,2013-01-20 19:57:00,
2013-01-20 15:02:00,68.0,55.4,30.07,WNW,283,0.0,11.0,64,0.00,,,0.00,476.0,meteohub,2013-01-20 20:02:00,
2013-01-20 15:07:00,68.2,55.6,30.07,WNW,285,1.0,11.0,64,0.00,,,0.00,425.0,meteohub,2013-01-20 20:07:00,
2013-01-20 15:12:00,68.0,54.9,30.07,SW,229,3.0,11.0,63,0.00,,,0.00,452.0,meteohub,2013-01-20 20:12:00,
2013-01-20 15:17:00,68.0,54.9,30.07,NW,322,7.0,8.0,63,0.00,,,0.00,436.0,meteohub,2013-01-20 20:17:00,
2013-01-20 15:22:00,67.8,54.7,30.06,WNW,291,4.0,10.0,63,0.00,,,0.00,422.0,meteohub,2013-01-20 20:22:00,
2013-01-20 15:28:00,67.6,54.7,30.06,West,263,0.0,10.0,63,0.00,,,0.00,411.0,meteohub,2013-01-20 20:28:00,
2013-01-20 15:33:00,67.8,54.3,30.06,NW,311,3.0,10.0,62,0.00,,,0.00,399.0,meteohub,2013-01-20 20:33:00,
2013-01-20 15:38:00,67.8,54.3,30.06,WNW,286,1.0,9.0,62,0.00,,,0.00,383.0,meteohub,2013-01-20 20:38:00,
2013-01-20 15:43:00,67.8,54.3,30.06,West,267,2.0,8.0,62,0.00,,,0.00,362.0,meteohub,2013-01-20 20:43:00,
2013-01-20 15:48:00,67.8,54.0,30.06,WNW,291,2.0,8.0,61,0.00,,,0.00,353.0,meteohub,2013-01-20 20:48:00,
2013-01-20 15:53:00,67.6,54.1,30.06,WNW,282,2.0,9.0,62,0.00,,,0.00,308.0,meteohub,2013-01-20 20:53:00,
2013-01-20 15:58:00,67.6,53.8,30.06,WNW,291,2.0,9.0,61,0.00,,,0.00,290.0,meteohub,2013-01-20 20:58:00,
2013-01-20 16:03:00,67.5,53.6,30.06,WNW,290,4.0,9.0,61,0.00,,,0.00,306.0,meteohub,2013-01-20 21:03:00,
2013-01-20 16:08:00,67.6,53.8,30.06,SW,235,4.0,7.0,61,0.00,,,0.00,225.0,meteohub,2013-01-20 21:08:00,
2013-01-20 16:13:00,67.6,53.8,30.06,NNW,334,5.0,7.0,61,0.00,,,0.00,149.0,meteohub,2013-01-20 21:13:00,
2013-01-20 16:18:00,67.5,53.6,30.06,West,277,0.0,7.0,61,0.00,,,0.00,156.0,meteohub,2013-01-20 21:18:00,
2013-01-20 16:23:00,67.5,53.6,30.06,WSW,258,1.0,7.0,61,0.00,,,0.00,120.0,meteohub,2013-01-20 21:23:00,
2013-01-20 16:28:00,67.3,52.9,30.06,NNW,345,7.0,7.0,60,0.00,,,0.00,116.0,meteohub,2013-01-20 21:28:00,
2013-01-20 16:33:00,67.3,53.4,30.06,West,280,1.0,9.0,61,0.00,,,0.00,172.0,meteohub,2013-01-20 21:33:00,
2013-01-20 16:38:00,67.1,52.7,30.06,WNW,283,1.0,9.0,60,0.00,,,0.00,171.0,meteohub,2013-01-20 21:38:00,
2013-01-20 16:43:00,67.1,52.7,30.06,WNW,290,2.0,9.0,60,0.00,,,0.00,95.0,meteohub,2013-01-20 21:43:00,
2013-01-20 16:48:00,67.3,52.9,30.07,South,183,1.0,7.0,60,0.00,,,0.00,123.0,meteohub,2013-01-20 21:48:00,
2013-01-20 16:53:00,67.3,52.9,30.07,SW,215,0.0,5.0,60,0.00,,,0.00,53.0,meteohub,2013-01-20 21:53:00,
2013-01-20 16:58:00,67.1,52.7,30.07,SW,234,1.0,5.0,60,0.00,,,0.00,65.0,meteohub,2013-01-20 21:58:00,
2013-01-20 17:03:00,66.9,52.5,30.07,WSW,240,0.0,6.0,60,0.00,,,0.00,86.0,meteohub,2013-01-20 22:03:00,
2013-01-20 17:08:00,66.7,52.3,30.07,WNW,297,0.0,6.0,60,0.00,,,0.00,47.0,meteohub,2013-01-20 22:08:00,
2013-01-20 17:13:00,66.6,52.2,30.07,WNW,297,1.0,6.0,60,0.00,,,0.00,26.0,meteohub,2013-01-20 22:13:00,
2013-01-20 17:18:00,66.4,52.2,30.07,WNW,297,0.0,4.0,60,0.00,,,0.00,23.0,meteohub,2013-01-20 22:18:00,
2013-01-20 17:23:00,66.0,51.8,30.07,WNW,296,0.0,4.0,60,0.00,,,0.00,21.0,meteohub,2013-01-20 22:23:00,
2013-01-20 17:28:00,65.7,51.4,30.07,WNW,296,0.0,1.0,60,0.00,,,0.00,18.0,meteohub,2013-01-20 22:28:00,
2013-01-20 17:33:00,65.1,51.3,30.07,WNW,297,0.0,0.0,61,0.00,,,0.00,14.0,meteohub,2013-01-20 22:33:00,
2013-01-20 17:38:00,64.8,51.1,30.07,WNW,297,0.0,0.0,61,0.00,,,0.00,11.0,meteohub,2013-01-20 22:38:00,
2013-01-20 17:43:00,64.4,51.1,30.08,WNW,296,0.0,0.0,62,0.00,,,0.00,9.0,meteohub,2013-01-20 22:43:00,
2013-01-20 17:48:00,63.9,51.1,30.08,WNW,297,0.0,0.0,63,0.00,,,0.00,5.0,meteohub,2013-01-20 22:48:00,
2013-01-20 17:53:00,63.3,50.5,30.07,WNW,296,0.0,0.0,63,0.00,,,0.00,0.0,meteohub,2013-01-20 22:53:00,
2013-01-20 17:58:00,62.4,50.0,30.08,WNW,296,0.0,0.0,64,0.00,,,0.00,0.0,meteohub,2013-01-20 22:58:00,
2013-01-20 18:03:00,61.9,49.6,30.08,WNW,296,0.0,0.0,64,0.00,,,0.00,0.0,meteohub,2013-01-20 23:03:00,
2013-01-20 18:08:00,61.3,49.5,30.08,WNW,297,0.0,0.0,65,0.00,,,0.00,0.0,meteohub,2013-01-20 23:08:00,
2013-01-20 18:13:00,60.4,49.1,30.08,WNW,297,0.0,0.0,66,0.00,,,0.00,0.0,meteohub,2013-01-20 23:13:00,
2013-01-20 18:19:00,59.9,48.6,30.08,WNW,296,0.0,0.0,66,0.00,,,0.00,0.0,meteohub,2013-01-20 23:19:00,
2013-01-20 18:24:00,59.4,48.0,30.08,WNW,297,0.0,0.0,66,0.00,,,0.00,0.0,meteohub,2013-01-20 23:24:00,
2013-01-20 18:29:00,59.0,48.0,30.08,WNW,297,0.0,0.0,67,0.00,,,0.00,0.0,meteohub,2013-01-20 23:29:00,
2013-01-20 18:34:00,58.3,47.3,30.08,WNW,297,0.0,0.0,67,0.00,,,0.00,0.0,meteohub,2013-01-20 23:34:00,
2013-01-20 18:39:00,57.7,47.3,30.08,WNW,297,0.0,0.0,68,0.00,,,0.00,0.0,meteohub,2013-01-20 23:39:00,
2013-01-20 18:44:00,57.2,46.8,30.08,WNW,297,0.0,0.0,68,0.00,,,0.00,0.0,meteohub,2013-01-20 23:44:00,
2013-01-20 18:49:00,56.7,46.6,30.08,WNW,296,0.0,0.0,69,0.00,,,0.00,0.0,meteohub,2013-01-20 23:49:00,
2013-01-20 18:54:00,56.1,46.0,30.09,WNW,296,0.0,0.0,69,0.00,,,0.00,0.0,meteohub,2013-01-20 23:54:00,
2013-01-20 18:59:00,55.8,46.0,30.09,WNW,297,0.0,0.0,70,0.00,,,0.00,0.0,meteohub,2013-01-20 23:59:00,
2013-01-20 19:04:00,55.2,45.7,30.09,WNW,297,0.0,0.0,70,0.00,,,0.00,0.0,meteohub,2013-01-21 00:04:00,
2013-01-20 19:09:00,54.9,45.7,30.09,WNW,297,0.0,1.0,71,0.00,,,0.00,0.0,meteohub,2013-01-21 00:09:00,
2013-01-20 19:14:00,54.3,45.1,30.09,WNW,297,0.0,1.0,71,0.00,,,0.00,0.0,meteohub,2013-01-21 00:14:00,
2013-01-20 19:19:00,54.0,45.1,30.09,WNW,297,0.0,1.0,72,0.00,,,0.00,0.0,meteohub,2013-01-21 00:19:00,
2013-01-20 19:24:00,53.4,44.6,30.09,WNW,297,0.0,0.0,72,0.00,,,0.00,0.0,meteohub,2013-01-21 00:24:00,
2013-01-20 19:29:00,53.2,44.4,30.09,WNW,297,0.0,0.0,72,0.00,,,0.00,0.0,meteohub,2013-01-21 00:29:00,
2013-01-20 19:34:00,52.9,44.4,30.09,WNW,297,0.0,0.0,73,0.00,,,0.00,0.0,meteohub,2013-01-21 00:34:00,
2013-01-20 19:39:00,52.5,44.1,30.09,WNW,296,0.0,0.0,73,0.00,,,0.00,0.0,meteohub,2013-01-21 00:39:00,
2013-01-20 19:44:00,52.3,43.9,30.09,WNW,297,0.0,0.0,73,0.00,,,0.00,0.0,meteohub,2013-01-21 00:44:00,
2013-01-20 19:49:00,52.2,44.1,30.09,WNW,297,0.0,0.0,74,0.00,,,0.00,0.0,meteohub,2013-01-21 00:49:00,
2013-01-20 19:54:00,52.0,43.9,30.09,WNW,296,0.0,0.0,74,0.00,,,0.00,0.0,meteohub,2013-01-21 00:54:00,
2013-01-20 19:59:00,51.6,43.5,30.09,WNW,297,0.0,0.0,74,0.00,,,0.00,0.0,meteohub,2013-01-21 00:59:00,
2013-01-20 20:04:00,51.4,43.7,30.09,WNW,297,0.0,0.0,75,0.00,,,0.00,0.0,meteohub,2013-01-21 01:04:00,
2013-01-20 20:09:00,51.4,43.7,30.09,WNW,297,0.0,1.0,75,0.00,,,0.00,0.0,meteohub,2013-01-21 01:09:00,
2013-01-20 20:14:00,51.3,43.9,30.09,WNW,296,0.0,1.0,76,0.00,,,0.00,0.0,meteohub,2013-01-21 01:14:00,
2013-01-20 20:19:00,51.1,43.7,30.09,WNW,297,0.0,1.0,76,0.00,,,0.00,0.0,meteohub,2013-01-21 01:19:00,
2013-01-20 20:24:00,50.7,43.5,30.09,WNW,296,0.0,0.0,76,0.00,,,0.00,0.0,meteohub,2013-01-21 01:24:00,
2013-01-20 20:29:00,50.5,43.5,30.09,WNW,297,0.0,0.0,77,0.00,,,0.00,0.0,meteohub,2013-01-21 01:29:00,
2013-01-20 20:34:00,50.2,43.3,30.09,WNW,297,0.0,0.0,77,0.00,,,0.00,0.0,meteohub,2013-01-21 01:34:00,
2013-01-20 20:39:00,50.2,43.3,30.09,WNW,296,0.0,0.0,77,0.00,,,0.00,0.0,meteohub,2013-01-21 01:39:00,
2013-01-20 20:44:00,50.0,43.3,30.09,WNW,297,0.0,0.0,78,0.00,,,0.00,0.0,meteohub,2013-01-21 01:44:00,
2013-01-20 20:49:00,49.8,43.2,30.09,WNW,297,0.0,0.0,78,0.00,,,0.00,0.0,meteohub,2013-01-21 01:49:00,
2013-01-20 20:54:00,49.5,42.8,30.09,WNW,297,0.0,0.0,78,0.00,,,0.00,0.0,meteohub,2013-01-21 01:54:00,
2013-01-20 21:00:00,49.5,42.8,30.09,WNW,297,0.0,0.0,78,0.00,,,0.00,0.0,meteohub,2013-01-21 02:00:00,
2013-01-20 21:05:00,49.3,42.8,30.09,WNW,297,0.0,0.0,78,0.00,,,0.00,0.0,meteohub,2013-01-21 02:05:00,
2013-01-20 21:10:00,49.3,43.0,30.09,WNW,297,0.0,0.0,79,0.00,,,0.00,0.0,meteohub,2013-01-21 02:10:00,
2013-01-20 21:15:00,49.3,43.0,30.10,WNW,296,0.0,0.0,79,0.00,,,0.00,0.0,meteohub,2013-01-21 02:15:00,
2013-01-20 21:20:00,49.1,42.8,30.10,WNW,297,0.0,0.0,79,0.00,,,0.00,0.0,meteohub,2013-01-21 02:20:00,
2013-01-20 21:25:00,48.7,42.8,30.10,WNW,296,0.0,0.0,80,0.00,,,0.00,0.0,meteohub,2013-01-21 02:25:00,
2013-01-20 21:30:00,48.6,42.6,30.10,WNW,297,0.0,0.0,80,0.00,,,0.00,0.0,meteohub,2013-01-21 02:30:00,
2013-01-20 21:35:00,48.4,42.4,30.10,WNW,296,0.0,0.0,80,0.00,,,0.00,0.0,meteohub,2013-01-21 02:35:00,
2013-01-20 21:40:00,48.2,42.3,30.10,WNW,296,0.0,0.0,80,0.00,,,0.00,0.0,meteohub,2013-01-21 02:40:00,
2013-01-20 21:45:00,48.0,42.4,30.10,WNW,297,0.0,0.0,81,0.00,,,0.00,0.0,meteohub,2013-01-21 02:45:00,
2013-01-20 21:50:00,47.8,42.3,30.10,WNW,296,0.0,0.0,81,0.00,,,0.00,0.0,meteohub,2013-01-21 02:50:00,
2013-01-20 21:55:00,47.7,42.1,30.10,WNW,297,0.0,0.0,81,0.00,,,0.00,0.0,meteohub,2013-01-21 02:55:00,
2013-01-20 22:00:00,47.7,42.1,30.10,WNW,297,0.0,0.0,81,0.00,,,0.00,0.0,meteohub,2013-01-21 03:00:00,
2013-01-20 22:05:00,47.5,41.9,30.10,WNW,297,0.0,0.0,81,0.00,,,0.00,0.0,meteohub,2013-01-21 03:05:00,
2013-01-20 22:10:00,47.5,41.9,30.10,WNW,296,0.0,0.0,81,0.00,,,0.00,0.0,meteohub,2013-01-21 03:10:00,
2013-01-20 22:15:00,47.5,41.9,30.11,WNW,297,0.0,0.0,81,0.00,,,0.00,0.0,meteohub,2013-01-21 03:15:00,
2013-01-20 22:20:00,47.5,42.3,30.10,WNW,297,0.0,0.0,82,0.00,,,0.00,0.0,meteohub,2013-01-21 03:20:00,
2013-01-20 22:25:00,47.5,42.3,30.10,WNW,297,0.0,0.0,82,0.00,,,0.00,0.0,meteohub,2013-01-21 03:25:00,
2013-01-20 22:30:00,47.5,42.3,30.11,WNW,296,0.0,0.0,82,0.00,,,0.00,0.0,meteohub,2013-01-21 03:30:00,
2013-01-20 22:35:00,47.1,41.9,30.11,WNW,297,0.0,0.0,82,0.00,,,0.00,0.0,meteohub,2013-01-21 03:35:00,
2013-01-20 22:40:00,46.8,41.9,30.10,WNW,297,0.0,0.0,83,0.00,,,0.00,0.0,meteohub,2013-01-21 03:40:00,
2013-01-20 22:45:00,46.6,41.7,30.10,WNW,297,0.0,0.0,83,0.00,,,0.00,0.0,meteohub,2013-01-21 03:45:00,
2013-01-20 22:50:00,46.2,41.4,30.10,WNW,296,0.0,0.0,83,0.00,,,0.00,0.0,meteohub,2013-01-21 03:50:00,
2013-01-20 22:55:00,46.0,41.2,30.10,WNW,296,0.0,0.0,83,0.00,,,0.00,0.0,meteohub,2013-01-21 03:55:00,
2013-01-20 23:00:00,45.9,41.0,30.10,WNW,297,0.0,0.0,83,0.00,,,0.00,0.0,meteohub,2013-01-21 04:00:00,
2013-01-20 23:05:00,45.9,41.0,30.10,WNW,296,0.0,0.0,83,0.00,,,0.00,0.0,meteohub,2013-01-21 04:05:00,
2013-01-20 23:10:00,45.9,41.0,30.10,WNW,296,0.0,0.0,83,0.00,,,0.00,0.0,meteohub,2013-01-21 04:10:00,
2013-01-20 23:15:00,45.9,41.0,30.10,WNW,297,0.0,0.0,83,0.00,,,0.00,0.0,meteohub,2013-01-21 04:15:00,
2013-01-20 23:20:00,45.7,41.2,30.10,WNW,296,0.0,0.0,84,0.00,,,0.00,0.0,meteohub,2013-01-21 04:20:00,
2013-01-20 23:25:00,45.7,41.2,30.10,WNW,297,0.0,0.0,84,0.00,,,0.00,0.0,meteohub,2013-01-21 04:25:00,
2013-01-20 23:30:00,45.7,41.2,30.10,WNW,297,0.0,0.0,84,0.00,,,0.00,0.0,meteohub,2013-01-21 04:30:00,
2013-01-20 23:35:00,45.5,41.0,30.10,WNW,297,0.0,0.0,84,0.00,,,0.00,0.0,meteohub,2013-01-21 04:35:00,
2013-01-20 23:40:00,45.3,40.8,30.10,WNW,296,0.0,0.0,84,0.00,,,0.00,0.0,meteohub,2013-01-21 04:40:00,
2013-01-20 23:45:00,45.1,40.6,30.10,WNW,296,0.0,0.0,84,0.00,,,0.00,0.0,meteohub,2013-01-21 04:45:00,
2013-01-20 23:50:00,45.0,40.5,30.10,WNW,297,0.0,0.0,84,0.00,,,0.00,0.0,meteohub,2013-01-21 04:50:00,
2013-01-20 23:55:00,45.0,40.6,30.10,WNW,296,0.0,0.0,85,0.00,,,0.00,0.0,meteohub,2013-01-21 04:55:00,